Simultaneous Nadir Overpasses (SNOs) Predictions

Prediction of SNOs between METOP-B and TERRA Satellite Orbit:

Table of predicted SNOs for the next 14.0 days since TLE Epoch: 2/4/2023
Index Date (METOP-B) Time (METOP-B) Lat,Lon (METOP-B) SZA (METOP-B ) Date (TERRA) Time (TERRA) Lat,Lon (TERRA) SZA (TERRA ) Distance(km) Time Diff (sec)
1 02/05/2023 04:42:06 80.96, 145.03 98.25 02/05/2023 04:42:13 80.96, 145.16 98.27 2.47 7
2 02/05/2023 05:32:44 -81.01, -46.52 81.63 02/05/2023 05:31:34 -81.01, -46.59 81.66 1.20 70
3 02/07/2023 20:03:08 -80.92, 94.02 82.66 02/07/2023 20:04:19 -80.92, 94.08 82.63 1.07 71
4 02/07/2023 20:53:46 80.96, -97.76 97.44 02/07/2023 20:53:40 80.96, -97.74 97.44 0.31 6
5 02/10/2023 12:14:48 -80.94,-148.44 83.46 02/10/2023 12:15:46 -80.94,-148.60 83.46 2.79 58
6 02/10/2023 13:05:27 80.97, 19.40 96.60 02/10/2023 13:05:07 80.97, 19.53 96.61 2.50 20
7 02/13/2023 04:26:29 -80.94, -31.32 84.33 02/13/2023 04:27:13 -80.94, -31.44 84.33 2.11 44
8 02/13/2023 05:17:08 80.97, 136.49 95.72 02/13/2023 05:16:34 80.97, 136.64 95.73 2.64 34
9 02/15/2023 20:38:11 -80.93, 85.37 85.28 02/15/2023 20:38:40 -80.93, 85.55 85.26 3.09 29



Historial Predications of SNOs between METOP-B and TERRA
